STARLINK-11625 [DTC] (63109 NORAD) Tracking and Keplerian Element Data

This shows tracking and keplerian element data for the satellite.

Feedback or suggestion? Click here.




ElementValue
Catalog63109
NameSTARLINK-11625 [DTC]
Epoch Orbit4708
Epoch Day354.02371912
Epoch Year2025
RAAN357.2623
Inclination42.9988
Eccentricity0.0001855
Argument of Perigee239.0729
Mean Anonmoly120.9957
Mean Motion15.70966882
Decay Rate0.00287165
L11 63109U 25039F 25354.02371912 .00287165 00000+0 21535-2 0 9998
L22 63109 42.9988 357.2623 0001855 239.0729 120.9957 15.70966882 47084



Live tracking and technical data element details for STARLINK-11625 [DTC] (NORAD 63109). STARLINK-11625 [DTC] can be tracked NOW for your location showing map with azimuth and elevation plus other details from your city location.







IsCatalogInMostPopularTable: catalog: 63109, numindb: 1
Update: records affected: 1



GetName: 63109 STARLINK-11625 [DTC]

Hit Count: updated at: Tue, 10 Feb 2026 03:15:24 GMT